Time,TemperatureF,DewpointF,PressureIn,WindDirection,WindDirectionDegrees,WindSpeedMPH,WindSpeedGustMPH,Humidity,HourlyPrecipIn,Conditions,Clouds,dailyrainin,SoftwareType,DateUTC
2013-03-07 00:00:00,32.4,25.7,-100.00,SW,219,4.0,8.7,76,-99.99,,,0.00,LWC V2.10 B1813,2013-03-07 05:00:00,
2013-03-07 00:05:00,32.4,25.7,-100.00,WSW,251,8.1,8.1,76,-99.99,,,0.00,LWC V2.10 B1813,2013-03-07 05:05:00,
2013-03-07 00:10:00,32.4,25.7,-100.00,SW,234,2.7,5.4,76,-99.99,,,0.00,LWC V2.10 B1813,2013-03-07 05:10:00,
2013-03-07 00:12:00,32.4,25.7,-100.00,SW,220,3.1,7.6,76,-99.99,,,0.00,LWC V2.10 B1813,2013-03-07 05:12:00,
2013-03-07 00:17:00,32.2,25.2,-100.00,SSW,205,4.0,5.8,75,-99.99,,,0.00,LWC V2.10 B1813,2013-03-07 05:17:00,
2013-03-07 00:21:00,32.2,25.5,-100.00,SSW,209,2.2,6.3,76,-99.99,,,0.00,LWC V2.10 B1813,2013-03-07 05:21:00,
2013-03-07 00:26:00,32.2,25.5,-100.00,SW,230,3.6,7.6,76,-99.99,,,0.00,LWC V2.10 B1813,2013-03-07 05:26:00,
2013-03-07 00:31:00,32.2,25.2,-100.00,SSW,208,5.4,5.8,75,-99.99,,,0.00,LWC V2.10 B1813,2013-03-07 05:31:00,
2013-03-07 00:36:00,32.2,25.2,-100.00,SW,219,3.6,5.4,75,-99.99,,,0.00,LWC V2.10 B1813,2013-03-07 05:36:00,
2013-03-07 00:41:00,32.2,25.5,-100.00,SW,215,3.1,5.8,76,-99.99,,,0.00,LWC V2.10 B1813,2013-03-07 05:41:00,
2013-03-07 00:46:00,32.2,25.5,-100.00,SW,235,5.8,5.8,76,-99.99,,,0.00,LWC V2.10 B1813,2013-03-07 05:46:00,
2013-03-07 00:47:00,32.2,25.5,-100.00,SSW,213,5.8,7.6,76,-99.99,,,0.00,LWC V2.10 B1813,2013-03-07 05:47:00,
2013-03-07 00:52:00,32.2,25.5,-100.00,SW,214,2.2,8.1,76,-99.99,,,0.00,LWC V2.10 B1813,2013-03-07 05:52:00,
2013-03-07 00:57:00,32.2,25.5,-100.00,SW,225,2.7,2.7,76,-99.99,,,0.00,LWC V2.10 B1813,2013-03-07 05:57:00,
2013-03-07 01:02:00,32.0,25.3,-100.00,West,273,3.6,5.8,76,-99.99,,,0.00,LWC V2.10 B1813,2013-03-07 06:02:00,
2013-03-07 01:07:00,32.2,25.5,-100.00,WSW,237,3.1,5.4,76,-99.99,,,0.00,LWC V2.10 B1813,2013-03-07 06:07:00,
2013-03-07 01:12:00,32.0,25.6,-100.00,WSW,243,2.7,5.8,77,-99.99,,,0.00,LWC V2.10 B1813,2013-03-07 06:12:00,
2013-03-07 01:17:00,32.0,25.6,-100.00,SW,220,4.0,4.9,77,-99.99,,,0.00,LWC V2.10 B1813,2013-03-07 06:17:00,
2013-03-07 01:22:00,32.0,25.6,-100.00,SW,216,4.9,6.3,77,-99.99,,,0.00,LWC V2.10 B1813,2013-03-07 06:22:00,
2013-03-07 01:27:00,32.0,25.6,-100.00,SW,226,7.6,7.6,77,-99.99,,,0.00,LWC V2.10 B1813,2013-03-07 06:27:00,
2013-03-07 01:32:00,32.0,25.6,-100.00,SSW,197,4.9,8.1,77,-99.99,,,0.00,LWC V2.10 B1813,2013-03-07 06:32:00,
2013-03-07 01:37:00,31.8,25.4,-100.00,SW,216,4.0,6.3,77,-99.99,,,0.00,LWC V2.10 B1813,2013-03-07 06:37:00,
2013-03-07 01:42:00,32.0,25.6,-100.00,South,172,2.7,6.3,77,-99.99,,,0.00,LWC V2.10 B1813,2013-03-07 06:42:00,
2013-03-07 01:47:00,31.8,25.4,-100.00,SW,228,6.3,6.3,77,-99.99,,,0.00,LWC V2.10 B1813,2013-03-07 06:47:00,
2013-03-07 01:52:00,31.8,25.4,-100.00,SW,225,3.1,8.1,77,-99.99,,,0.00,LWC V2.10 B1813,2013-03-07 06:52:00,
2013-03-07 01:57:00,31.8,25.4,-100.00,SW,220,3.6,4.9,77,-99.99,,,0.00,LWC V2.10 B1813,2013-03-07 06:57:00,
2013-03-07 02:02:00,31.8,25.4,-100.00,SSW,197,3.6,7.6,77,-99.99,,,0.00,LWC V2.10 B1813,2013-03-07 07:02:00,
2013-03-07 02:07:00,31.6,25.0,-100.00,SSW,207,5.8,8.1,76,-99.99,,,0.00,LWC V2.10 B1813,2013-03-07 07:07:00,
2013-03-07 02:12:00,31.6,25.3,-100.00,South,178,3.6,4.9,77,-99.99,,,0.00,LWC V2.10 B1813,2013-03-07 07:12:00,
2013-03-07 02:17:00,31.6,25.3,-100.00,WSW,239,5.8,7.2,77,-99.99,,,0.00,LWC V2.10 B1813,2013-03-07 07:17:00,
2013-03-07 02:22:00,31.6,25.3,-100.00,WSW,240,4.0,6.3,77,-99.99,,,0.00,LWC V2.10 B1813,2013-03-07 07:22:00,
2013-03-07 02:27:00,31.6,25.0,-100.00,South,187,5.8,5.8,76,-99.99,,,0.00,LWC V2.10 B1813,2013-03-07 07:27:00,
2013-03-07 02:32:00,31.6,25.0,-100.00,SSW,196,7.6,8.7,76,-99.99,,,0.00,LWC V2.10 B1813,2013-03-07 07:32:00,
2013-03-07 02:37:00,31.6,25.3,-100.00,SSW,204,2.7,4.9,77,-99.99,,,0.00,LWC V2.10 B1813,2013-03-07 07:37:00,
2013-03-07 02:42:00,31.6,25.3,-100.00,SW,232,5.8,5.8,77,-99.99,,,0.00,LWC V2.10 B1813,2013-03-07 07:42:00,
2013-03-07 02:47:00,31.5,25.1,-100.00,WSW,250,3.1,4.0,77,-99.99,,,0.00,LWC V2.10 B1813,2013-03-07 07:47:00,
2013-03-07 02:52:00,31.5,25.1,-100.00,SSW,208,3.6,5.8,77,-99.99,,,0.00,LWC V2.10 B1813,2013-03-07 07:52:00,
2013-03-07 02:57:00,31.5,24.8,-100.00,SSW,210,4.9,6.3,76,-99.99,,,0.00,LWC V2.10 B1813,2013-03-07 07:57:00,
2013-03-07 03:02:00,31.5,24.8,-100.00,SW,236,3.6,4.9,76,-99.99,,,0.00,LWC V2.10 B1813,2013-03-07 08:02:00,
2013-03-07 03:07:00,31.5,24.8,-100.00,SSW,205,5.4,5.4,76,-99.99,,,0.00,LWC V2.10 B1813,2013-03-07 08:07:00,
2013-03-07 03:12:00,31.5,24.8,-100.00,SSW,201,5.4,7.6,76,-99.99,,,0.00,LWC V2.10 B1813,2013-03-07 08:12:00,
2013-03-07 03:17:00,31.5,24.8,-100.00,SW,230,5.8,5.8,76,-99.99,,,0.00,LWC V2.10 B1813,2013-03-07 08:17:00,
2013-03-07 03:22:00,31.5,24.5,-100.00,SW,232,3.6,5.8,75,-99.99,,,0.00,LWC V2.10 B1813,2013-03-07 08:22:00,
2013-03-07 03:27:00,31.6,24.6,-100.00,SW,233,3.1,8.3,75,-99.99,,,0.00,LWC V2.10 B1813,2013-03-07 08:27:00,
2013-03-07 03:32:00,31.6,24.6,-100.00,SW,234,4.9,5.4,75,-99.99,,,0.00,LWC V2.10 B1813,2013-03-07 08:32:00,
2013-03-07 03:37:00,31.6,24.6,-100.00,WSW,240,5.4,5.4,75,-99.99,,,0.00,LWC V2.10 B1813,2013-03-07 08:37:00,
2013-03-07 03:42:00,31.5,24.5,-100.00,WSW,252,3.1,7.2,75,-99.99,,,0.00,LWC V2.10 B1813,2013-03-07 08:42:00,
2013-03-07 03:47:00,31.5,24.1,-100.00,SSW,202,3.6,7.6,74,-99.99,,,0.00,LWC V2.10 B1813,2013-03-07 08:47:00,
2013-03-07 03:52:00,31.5,24.1,-100.00,South,184,4.0,8.3,74,-99.99,,,0.00,LWC V2.10 B1813,2013-03-07 08:52:00,
2013-03-07 03:57:00,31.5,24.1,-100.00,SSW,207,4.0,7.6,74,-99.99,,,0.00,LWC V2.10 B1813,2013-03-07 08:57:00,
2013-03-07 04:02:00,31.5,24.5,-100.00,SW,218,3.1,5.8,75,-99.99,,,0.00,LWC V2.10 B1813,2013-03-07 09:02:00,
2013-03-07 04:07:00,31.5,24.5,-100.00,South,190,4.0,6.3,75,-99.99,,,0.00,LWC V2.10 B1813,2013-03-07 09:07:00,
2013-03-07 04:12:00,31.5,24.5,-100.00,SSW,207,3.6,4.0,75,-99.99,,,0.00,LWC V2.10 B1813,2013-03-07 09:12:00,
2013-03-07 04:17:00,31.5,24.5,-100.00,SSW,210,5.4,5.8,75,-99.99,,,0.00,LWC V2.10 B1813,2013-03-07 09:17:00,
2013-03-07 04:22:00,31.5,24.5,-100.00,SW,223,3.1,5.8,75,-99.99,,,0.00,LWC V2.10 B1813,2013-03-07 09:22:00,
2013-03-07 04:27:00,31.5,24.8,-100.00,SW,222,2.7,5.4,76,-99.99,,,0.00,LWC V2.10 B1813,2013-03-07 09:27:00,
2013-03-07 04:32:00,31.3,24.6,-100.00,SW,228,4.5,5.8,76,-99.99,,,0.00,LWC V2.10 B1813,2013-03-07 09:32:00,
2013-03-07 04:38:00,31.3,24.9,-100.00,SW,220,2.2,4.9,77,-99.99,,,0.00,LWC V2.10 B1813,2013-03-07 09:38:00,
2013-03-07 04:43:00,31.3,24.9,-100.00,SSW,208,8.3,8.3,77,-99.99,,,0.00,LWC V2.10 B1813,2013-03-07 09:43:00,
2013-03-07 04:48:00,31.3,24.9,-100.00,SSW,213,6.3,6.3,77,-99.99,,,0.00,LWC V2.10 B1813,2013-03-07 09:48:00,
2013-03-07 04:53:00,31.3,25.2,-100.00,SW,235,6.3,6.3,78,-99.99,,,0.00,LWC V2.10 B1813,2013-03-07 09:53:00,
2013-03-07 04:58:00,31.3,25.2,-100.00,SW,236,4.0,5.8,78,-99.99,,,0.00,LWC V2.10 B1813,2013-03-07 09:58:00,
2013-03-07 05:03:00,31.3,24.9,-100.00,WSW,252,6.3,6.3,77,-99.99,,,0.00,LWC V2.10 B1813,2013-03-07 10:03:00,
2013-03-07 05:08:00,31.3,25.2,-100.00,SW,236,4.0,5.8,78,-99.99,,,0.00,LWC V2.10 B1813,2013-03-07 10:08:00,
2013-03-07 05:13:00,31.1,25.1,-100.00,SW,215,4.9,4.9,78,-99.99,,,0.00,LWC V2.10 B1813,2013-03-07 10:13:00,
2013-03-07 05:18:00,31.1,25.1,-100.00,SW,234,3.1,5.4,78,-99.99,,,0.00,LWC V2.10 B1813,2013-03-07 10:18:00,
2013-03-07 05:23:00,31.1,25.1,-100.00,SW,228,4.9,7.6,78,-99.99,,,0.00,LWC V2.10 B1813,2013-03-07 10:23:00,
2013-03-07 05:28:00,31.1,25.1,-100.00,South,191,5.4,6.3,78,-99.99,,,0.00,LWC V2.10 B1813,2013-03-07 10:28:00,
2013-03-07 05:33:00,31.1,25.1,-100.00,SSW,205,2.7,8.1,78,-99.99,,,0.00,LWC V2.10 B1813,2013-03-07 10:33:00,
2013-03-07 05:38:00,31.1,25.1,-100.00,SSW,192,4.0,5.8,78,-99.99,,,0.00,LWC V2.10 B1813,2013-03-07 10:38:00,
2013-03-07 05:43:00,31.1,25.1,-100.00,SW,217,4.9,5.8,78,-99.99,,,0.00,LWC V2.10 B1813,2013-03-07 10:43:00,
2013-03-07 05:48:00,31.1,25.1,-100.00,SW,221,5.4,7.6,78,-99.99,,,0.00,LWC V2.10 B1813,2013-03-07 10:48:00,
2013-03-07 05:53:00,31.1,25.1,-100.00,South,188,2.7,4.0,78,-99.99,,,0.00,LWC V2.10 B1813,2013-03-07 10:53:00,
2013-03-07 05:58:00,31.1,25.1,-100.00,SW,216,4.9,8.1,78,-99.99,,,0.00,LWC V2.10 B1813,2013-03-07 10:58:00,
2013-03-07 06:03:00,31.1,25.1,-100.00,SW,224,4.0,4.9,78,-99.99,,,0.00,LWC V2.10 B1813,2013-03-07 11:03:00,
2013-03-07 06:08:00,31.1,25.1,-100.00,SSW,204,3.1,6.3,78,-99.99,,,0.00,LWC V2.10 B1813,2013-03-07 11:08:00,
2013-03-07 06:13:00,31.1,25.4,-100.00,SSW,212,6.3,6.3,79,-99.99,,,0.00,LWC V2.10 B1813,2013-03-07 11:13:00,
2013-03-07 06:18:00,31.1,25.1,-100.00,SW,219,5.4,6.3,78,-99.99,,,0.00,LWC V2.10 B1813,2013-03-07 11:18:00,
2013-03-07 06:23:00,31.1,25.1,-100.00,SW,218,4.0,5.8,78,-99.99,,,0.00,LWC V2.10 B1813,2013-03-07 11:23:00,
2013-03-07 06:28:00,31.1,25.1,-100.00,SSW,212,5.4,6.3,78,-99.99,,,0.00,LWC V2.10 B1813,2013-03-07 11:28:00,
2013-03-07 06:33:00,31.1,25.1,-100.00,SW,225,2.7,6.3,78,-99.99,,,0.00,LWC V2.10 B1813,2013-03-07 11:33:00,
2013-03-07 06:38:00,30.9,24.9,-100.00,SW,220,3.6,5.4,78,-99.99,,,0.00,LWC V2.10 B1813,2013-03-07 11:38:00,
2013-03-07 06:43:00,30.9,25.2,-100.00,SSW,201,4.9,5.8,79,-99.99,,,0.00,LWC V2.10 B1813,2013-03-07 11:43:00,
2013-03-07 06:48:00,31.1,25.1,-100.00,South,190,4.9,6.3,78,-99.99,,,0.00,LWC V2.10 B1813,2013-03-07 11:48:00,
2013-03-07 06:53:00,30.9,24.9,-100.00,SSW,197,5.8,8.1,78,-99.99,,,0.00,LWC V2.10 B1813,2013-03-07 11:53:00,
2013-03-07 06:58:00,31.1,25.1,-100.00,SSW,205,5.8,6.3,78,-99.99,,,0.00,LWC V2.10 B1813,2013-03-07 11:58:00,
2013-03-07 07:03:00,31.1,25.1,-100.00,SW,230,5.4,7.6,78,-99.99,,,0.00,LWC V2.10 B1813,2013-03-07 12:03:00,
2013-03-07 07:08:00,31.1,25.1,-100.00,SSW,204,5.8,6.3,78,-99.99,,,0.00,LWC V2.10 B1813,2013-03-07 12:08:00,
2013-03-07 07:13:00,31.1,25.1,-100.00,SW,227,8.7,8.7,78,-99.99,,,0.00,LWC V2.10 B1813,2013-03-07 12:13:00,
2013-03-07 07:18:00,31.1,25.1,-100.00,SW,234,8.3,8.3,78,-99.99,,,0.00,LWC V2.10 B1813,2013-03-07 12:18:00,
2013-03-07 07:23:00,31.1,24.7,-100.00,SSW,197,5.4,8.7,77,-99.99,,,0.00,LWC V2.10 B1813,2013-03-07 12:23:00,
2013-03-07 07:28:00,31.1,24.7,-100.00,SSW,210,6.3,6.3,77,-99.99,,,0.00,LWC V2.10 B1813,2013-03-07 12:28:00,
2013-03-07 07:33:00,31.3,24.9,-100.00,SSW,197,5.8,5.8,77,-99.99,,,0.00,LWC V2.10 B1813,2013-03-07 12:33:00,
2013-03-07 07:38:00,31.3,24.9,-100.00,SSW,204,5.4,8.1,77,-99.99,,,0.00,LWC V2.10 B1813,2013-03-07 12:38:00,
2013-03-07 07:43:00,31.3,24.9,-100.00,SSW,202,5.8,10.1,77,-99.99,,,0.00,LWC V2.10 B1813,2013-03-07 12:43:00,
2013-03-07 07:48:00,31.5,24.8,-100.00,SW,219,5.8,9.2,76,-99.99,,,0.00,LWC V2.10 B1813,2013-03-07 12:48:00,
2013-03-07 07:53:00,31.5,24.8,-100.00,SSW,202,7.6,8.7,76,-99.99,,,0.00,LWC V2.10 B1813,2013-03-07 12:53:00,
2013-03-07 07:58:00,31.6,25.0,-100.00,SSW,211,5.8,8.7,76,-99.99,,,0.00,LWC V2.10 B1813,2013-03-07 12:58:00,
2013-03-07 08:03:00,31.8,25.1,-100.00,SW,220,4.0,8.3,76,-99.99,,,0.00,LWC V2.10 B1813,2013-03-07 13:03:00,
2013-03-07 08:08:00,31.8,24.8,-100.00,South,186,4.0,5.4,75,-99.99,,,0.00,LWC V2.10 B1813,2013-03-07 13:08:00,
2013-03-07 08:13:00,32.0,25.0,-100.00,SSW,209,6.3,7.6,75,-99.99,,,0.00,LWC V2.10 B1813,2013-03-07 13:13:00,
2013-03-07 08:18:00,32.0,24.7,-100.00,SSW,198,4.5,5.4,74,-99.99,,,0.00,LWC V2.10 B1813,2013-03-07 13:18:00,
2013-03-07 08:23:00,32.2,24.8,-100.00,SSW,202,8.1,8.1,74,-99.99,,,0.00,LWC V2.10 B1813,2013-03-07 13:23:00,
2013-03-07 08:28:00,32.4,25.0,-100.00,SW,219,4.0,8.3,74,-99.99,,,0.00,LWC V2.10 B1813,2013-03-07 13:28:00,
2013-03-07 08:33:00,32.5,24.9,-100.00,SSW,200,4.0,8.3,73,-99.99,,,0.00,LWC V2.10 B1813,2013-03-07 13:33:00,
2013-03-07 08:38:00,32.7,25.0,-100.00,SSW,198,5.8,7.6,73,-99.99,,,0.00,LWC V2.10 B1813,2013-03-07 13:38:00,
2013-03-07 08:43:00,32.7,24.7,-100.00,SSW,207,4.9,5.8,72,-99.99,,,0.00,LWC V2.10 B1813,2013-03-07 13:43:00,
2013-03-07 08:48:00,32.7,24.7,-100.00,South,191,3.1,5.4,72,-99.99,,,0.00,LWC V2.10 B1813,2013-03-07 13:48:00,
2013-03-07 08:53:00,32.9,24.5,-100.00,SSW,210,4.0,8.3,71,-99.99,,,0.00,LWC V2.10 B1813,2013-03-07 13:53:00,
2013-03-07 08:58:00,33.1,24.4,-100.00,SSE,160,4.9,5.4,70,-99.99,,,0.00,LWC V2.10 B1813,2013-03-07 13:58:00,
2013-03-07 09:03:00,33.1,24.7,-100.00,SSW,198,5.8,6.3,71,-99.99,,,0.00,LWC V2.10 B1813,2013-03-07 14:03:00,
2013-03-07 09:08:00,33.1,24.0,-100.00,SSW,200,6.3,6.3,69,-99.99,,,0.00,LWC V2.10 B1813,2013-03-07 14:08:00,
2013-03-07 09:13:00,33.3,24.2,-100.00,SW,220,4.0,6.3,69,-99.99,,,0.00,LWC V2.10 B1813,2013-03-07 14:13:00,
2013-03-07 09:18:00,33.8,24.4,-100.00,SSW,197,4.0,5.8,68,-99.99,,,0.00,LWC V2.10 B1813,2013-03-07 14:18:00,
2013-03-07 09:23:00,34.0,24.2,-100.00,SSW,207,4.0,4.9,67,-99.99,,,0.00,LWC V2.10 B1813,2013-03-07 14:23:00,
2013-03-07 09:28:00,34.3,24.5,-100.00,South,177,5.4,7.6,67,-99.99,,,0.00,LWC V2.10 B1813,2013-03-07 14:28:00,
2013-03-07 09:33:00,34.2,24.0,-100.00,SSW,204,8.1,8.7,66,-99.99,,,0.00,LWC V2.10 B1813,2013-03-07 14:33:00,
2013-03-07 09:38:00,34.5,24.4,-100.00,SSW,204,4.0,7.6,66,-99.99,,,0.00,LWC V2.10 B1813,2013-03-07 14:38:00,
2013-03-07 09:43:00,34.9,24.3,-100.00,SSW,195,5.4,6.3,65,-99.99,,,0.00,LWC V2.10 B1813,2013-03-07 14:43:00,
2013-03-07 09:48:00,35.1,24.1,-100.00,SSW,196,5.8,5.8,64,-99.99,,,0.00,LWC V2.10 B1813,2013-03-07 14:48:00,
2013-03-07 09:53:00,35.4,24.5,-100.00,SW,221,7.6,7.6,64,-99.99,,,0.00,LWC V2.10 B1813,2013-03-07 14:53:00,
2013-03-07 09:58:00,35.2,23.5,-100.00,SSW,195,5.8,6.3,62,-99.99,,,0.00,LWC V2.10 B1813,2013-03-07 14:58:00,
2013-03-07 10:03:00,35.6,24.6,-100.00,SSW,202,6.3,6.3,64,-99.99,,,0.00,LWC V2.10 B1813,2013-03-07 15:03:00,
2013-03-07 10:08:00,36.1,24.4,-100.00,SW,234,5.4,6.3,62,-99.99,,,0.00,LWC V2.10 B1813,2013-03-07 15:08:00,
2013-03-07 10:13:00,36.3,24.2,-100.00,SSW,198,4.9,8.1,61,-99.99,,,0.00,LWC V2.10 B1813,2013-03-07 15:13:00,
2013-03-07 10:18:00,36.1,23.6,-100.00,SSW,199,3.6,6.3,60,-99.99,,,0.00,LWC V2.10 B1813,2013-03-07 15:18:00,
2013-03-07 10:23:00,36.7,24.1,-100.00,SW,230,8.1,8.1,60,-99.99,,,0.00,LWC V2.10 B1813,2013-03-07 15:23:00,
2013-03-07 10:28:00,36.5,24.0,-100.00,SSW,192,7.6,8.7,60,-99.99,,,0.00,LWC V2.10 B1813,2013-03-07 15:28:00,
2013-03-07 10:33:00,36.9,23.9,-100.00,SSW,206,7.6,7.6,59,-99.99,,,0.00,LWC V2.10 B1813,2013-03-07 15:33:00,
2013-03-07 10:39:00,37.2,23.8,-100.00,SSW,193,5.4,8.7,58,-99.99,,,0.00,LWC V2.10 B1813,2013-03-07 15:39:00,
2013-03-07 10:44:00,37.0,22.8,-100.00,WSW,239,8.3,8.3,56,-99.99,,,0.00,LWC V2.10 B1813,2013-03-07 15:44:00,
2013-03-07 10:49:00,37.4,22.7,-100.00,SW,222,5.8,5.8,55,-99.99,,,0.00,LWC V2.10 B1813,2013-03-07 15:49:00,
2013-03-07 10:54:00,37.6,23.7,-100.00,SSE,167,5.4,8.1,57,-99.99,,,0.00,LWC V2.10 B1813,2013-03-07 15:54:00,
2013-03-07 10:59:00,37.8,23.5,-100.00,NW,316,0.0,8.1,56,-99.99,,,0.00,LWC V2.10 B1813,2013-03-07 15:59:00,
2013-03-07 11:04:00,38.7,24.3,-100.00,South,186,5.4,7.2,56,-99.99,,,0.00,LWC V2.10 B1813,2013-03-07 16:04:00,
2013-03-07 11:09:00,38.7,23.5,-100.00,SSW,196,7.6,7.6,54,-99.99,,,0.00,LWC V2.10 B1813,2013-03-07 16:09:00,
2013-03-07 11:14:00,37.8,22.2,-100.00,SSW,206,5.4,8.3,53,-99.99,,,0.00,LWC V2.10 B1813,2013-03-07 16:14:00,
2013-03-07 11:19:00,38.5,24.2,-100.00,SSW,211,5.8,8.3,56,-99.99,,,0.00,LWC V2.10 B1813,2013-03-07 16:19:00,
2013-03-07 11:24:00,39.0,24.2,-100.00,South,188,4.9,8.7,55,-99.99,,,0.00,LWC V2.10 B1813,2013-03-07 16:24:00,
2013-03-07 11:29:00,39.4,24.1,-100.00,SSW,211,7.2,8.7,54,-99.99,,,0.00,LWC V2.10 B1813,2013-03-07 16:29:00,
2013-03-07 11:34:00,39.4,23.2,-100.00,SSW,196,5.4,8.1,52,-99.99,,,0.00,LWC V2.10 B1813,2013-03-07 16:34:00,
2013-03-07 11:39:00,39.7,23.1,-100.00,SW,219,6.3,8.3,51,-99.99,,,0.00,LWC V2.10 B1813,2013-03-07 16:39:00,
2013-03-07 11:44:00,39.9,23.7,-100.00,SSW,198,2.7,8.7,52,-99.99,,,0.00,LWC V2.10 B1813,2013-03-07 16:44:00,
2013-03-07 11:49:00,39.0,23.4,-100.00,SSW,204,11.4,11.4,53,-99.99,,,0.00,LWC V2.10 B1813,2013-03-07 16:49:00,
2013-03-07 11:54:00,39.9,24.6,-100.00,West,262,3.1,3.6,54,-99.99,,,0.00,LWC V2.10 B1813,2013-03-07 16:54:00,
2013-03-07 11:59:00,40.6,24.4,-100.00,South,187,5.8,5.8,52,-99.99,,,0.00,LWC V2.10 B1813,2013-03-07 16:59:00,
2013-03-07 12:04:00,40.3,23.1,-100.00,SW,232,4.0,5.4,50,-99.99,,,0.00,LWC V2.10 B1813,2013-03-07 17:04:00,
2013-03-07 12:09:00,38.3,21.3,-100.00,WSW,241,8.1,8.1,50,-99.99,,,0.00,LWC V2.10 B1813,2013-03-07 17:09:00,
2013-03-07 12:14:00,38.3,23.1,-100.00,West,263,3.6,8.1,54,-99.99,,,0.00,LWC V2.10 B1813,2013-03-07 17:14:00,
2013-03-07 12:19:00,37.4,21.9,-100.00,West,280,5.8,8.7,53,-99.99,,,0.00,LWC V2.10 B1813,2013-03-07 17:19:00,
2013-03-07 12:24:00,38.3,22.7,-100.00,WNW,288,5.4,6.7,53,-99.99,,,0.00,LWC V2.10 B1813,2013-03-07 17:24:00,
2013-03-07 12:29:00,38.7,23.0,-100.00,SW,234,5.8,8.7,53,-99.99,,,0.00,LWC V2.10 B1813,2013-03-07 17:29:00,
2013-03-07 12:34:00,37.4,21.4,-100.00,WNW,299,4.0,6.3,52,-99.99,,,0.00,LWC V2.10 B1813,2013-03-07 17:34:00,
2013-03-07 12:39:00,37.9,23.2,-100.00,WSW,240,3.1,10.5,55,-99.99,,,0.00,LWC V2.10 B1813,2013-03-07 17:39:00,
2013-03-07 12:44:00,39.0,23.4,-100.00,WSW,239,5.8,10.5,53,-99.99,,,0.00,LWC V2.10 B1813,2013-03-07 17:44:00,
2013-03-07 12:49:00,38.5,22.4,-100.00,South,183,5.4,8.1,52,-99.99,,,0.00,LWC V2.10 B1813,2013-03-07 17:49:00,
2013-03-07 12:54:00,38.3,21.8,-100.00,West,278,5.4,8.3,51,-99.99,,,0.00,LWC V2.10 B1813,2013-03-07 17:54:00,
2013-03-07 12:59:00,39.2,23.5,-100.00,SW,229,7.6,8.1,53,-99.99,,,0.00,LWC V2.10 B1813,2013-03-07 17:59:00,
2013-03-07 13:04:00,38.7,22.1,-100.00,South,182,4.0,8.3,51,-99.99,,,0.00,LWC V2.10 B1813,2013-03-07 18:04:00,
2013-03-07 13:09:00,39.7,22.6,-100.00,WSW,250,5.4,8.3,50,-99.99,,,0.00,LWC V2.10 B1813,2013-03-07 18:09:00,
2013-03-07 13:14:00,39.4,22.3,-100.00,SW,231,3.6,6.3,50,-99.99,,,0.00,LWC V2.10 B1813,2013-03-07 18:14:00,
2013-03-07 13:19:00,37.8,20.8,-100.00,WSW,253,6.3,15.0,50,-99.99,,,0.00,LWC V2.10 B1813,2013-03-07 18:19:00,
2013-03-07 13:24:00,37.9,21.9,-100.00,West,277,5.4,10.1,52,-99.99,,,0.00,LWC V2.10 B1813,2013-03-07 18:24:00,
2013-03-07 13:29:00,38.7,22.1,-100.00,WSW,241,4.9,8.3,51,-99.99,,,0.00,LWC V2.10 B1813,2013-03-07 18:29:00,
2013-03-07 13:34:00,38.7,22.1,-100.00,SW,224,6.3,8.7,51,-99.99,,,0.00,LWC V2.10 B1813,2013-03-07 18:34:00,
2013-03-07 13:39:00,39.4,22.8,-100.00,SSW,202,6.3,8.3,51,-99.99,,,0.00,LWC V2.10 B1813,2013-03-07 18:39:00,
2013-03-07 13:44:00,40.5,25.1,-100.00,SSW,205,5.4,10.5,54,-99.99,,,0.00,LWC V2.10 B1813,2013-03-07 18:44:00,
2013-03-07 13:49:00,39.7,22.6,-100.00,SSW,203,8.7,8.7,50,-99.99,,,0.00,LWC V2.10 B1813,2013-03-07 18:49:00,
2013-03-07 13:54:00,41.5,24.3,-100.00,South,173,5.4,5.8,50,-99.99,,,0.00,LWC V2.10 B1813,2013-03-07 18:54:00,
2013-03-07 13:59:00,41.7,24.5,-100.00,SSW,202,3.6,8.3,50,-99.99,,,0.00,LWC V2.10 B1813,2013-03-07 18:59:00,
2013-03-07 14:04:00,42.1,23.3,-100.00,South,186,5.8,7.2,47,-99.99,,,0.00,LWC V2.10 B1813,2013-03-07 19:04:00,
2013-03-07 14:09:00,42.3,24.5,-100.00,SW,226,3.1,8.7,49,-99.99,,,0.00,LWC V2.10 B1813,2013-03-07 19:09:00,
2013-03-07 14:14:00,42.8,22.4,-100.00,South,173,6.3,10.1,44,-99.99,,,0.00,LWC V2.10 B1813,2013-03-07 19:14:00,
2013-03-07 14:19:00,43.3,24.5,-100.00,South,176,5.4,5.8,47,-99.99,,,0.00,LWC V2.10 B1813,2013-03-07 19:19:00,
2013-03-07 14:24:00,42.4,25.1,-100.00,SW,229,7.6,8.7,50,-99.99,,,0.00,LWC V2.10 B1813,2013-03-07 19:24:00,
2013-03-07 14:29:00,41.9,21.6,-100.00,South,185,3.1,5.4,44,-99.99,,,0.00,LWC V2.10 B1813,2013-03-07 19:29:00,
2013-03-07 14:34:00,43.0,22.6,-100.00,SSE,167,6.3,8.1,44,-99.99,,,0.00,LWC V2.10 B1813,2013-03-07 19:34:00,
2013-03-07 14:39:00,43.5,24.6,-100.00,WSW,252,7.6,11.0,47,-99.99,,,0.00,LWC V2.10 B1813,2013-03-07 19:39:00,
2013-03-07 14:44:00,41.7,22.0,-100.00,WSW,257,7.6,7.6,45,-99.99,,,0.00,LWC V2.10 B1813,2013-03-07 19:44:00,
2013-03-07 14:49:00,41.0,20.8,-100.00,SSW,202,3.6,5.8,44,-99.99,,,0.00,LWC V2.10 B1813,2013-03-07 19:49:00,
2013-03-07 14:54:00,40.6,22.5,-100.00,SSW,203,3.6,8.1,48,-99.99,,,0.00,LWC V2.10 B1813,2013-03-07 19:54:00,
2013-03-07 14:59:00,39.9,21.3,-100.00,West,274,3.6,6.3,47,-99.99,,,0.00,LWC V2.10 B1813,2013-03-07 19:59:00,
2013-03-07 15:04:00,39.9,21.8,-100.00,South,184,3.6,4.0,48,-99.99,,,0.00,LWC V2.10 B1813,2013-03-07 20:04:00,
2013-03-07 15:09:00,39.6,21.5,-100.00,West,274,6.3,7.6,48,-99.99,,,0.00,LWC V2.10 B1813,2013-03-07 20:09:00,
2013-03-07 15:14:00,39.6,21.5,-100.00,West,266,5.4,7.6,48,-99.99,,,0.00,LWC V2.10 B1813,2013-03-07 20:14:00,
2013-03-07 15:19:00,39.6,22.0,-100.00,West,270,2.7,3.6,49,-99.99,,,0.00,LWC V2.10 B1813,2013-03-07 20:19:00,
2013-03-07 15:24:00,39.9,22.3,-100.00,WNW,299,2.2,3.6,49,-99.99,,,0.00,LWC V2.10 B1813,2013-03-07 20:24:00,
2013-03-07 15:29:00,40.3,23.1,-100.00,SW,221,3.6,5.8,50,-99.99,,,0.00,LWC V2.10 B1813,2013-03-07 20:29:00,
2013-03-07 15:34:00,39.7,21.7,-100.00,NW,306,4.0,6.3,48,-99.99,,,0.00,LWC V2.10 B1813,2013-03-07 20:34:00,
2013-03-07 15:39:00,39.9,22.3,-100.00,SW,220,3.6,4.0,49,-99.99,,,0.00,LWC V2.10 B1813,2013-03-07 20:39:00,
2013-03-07 15:44:00,39.9,21.8,-100.00,SSW,204,8.3,9.2,48,-99.99,,,0.00,LWC V2.10 B1813,2013-03-07 20:44:00,
2013-03-07 15:49:00,39.7,22.2,-100.00,SW,232,4.9,5.8,49,-99.99,,,0.00,LWC V2.10 B1813,2013-03-07 20:49:00,
2013-03-07 15:54:00,39.4,21.8,-100.00,SSE,168,3.1,10.1,49,-99.99,,,0.00,LWC V2.10 B1813,2013-03-07 20:54:00,
2013-03-07 15:59:00,39.2,22.1,-100.00,SSW,192,3.6,5.4,50,-99.99,,,0.00,LWC V2.10 B1813,2013-03-07 20:59:00,
2013-03-07 16:04:00,38.7,21.6,-100.00,SW,230,11.9,11.9,50,-99.99,,,0.00,LWC V2.10 B1813,2013-03-07 21:04:00,
2013-03-07 16:09:00,39.0,22.4,-100.00,SW,221,4.0,8.1,51,-99.99,,,0.00,LWC V2.10 B1813,2013-03-07 21:09:00,
2013-03-07 16:14:00,39.0,22.4,-100.00,SSE,168,4.0,8.3,51,-99.99,,,0.00,LWC V2.10 B1813,2013-03-07 21:14:00,
2013-03-07 16:19:00,38.8,21.8,-100.00,WSW,238,5.4,10.5,50,-99.99,,,0.00,LWC V2.10 B1813,2013-03-07 21:19:00,
2013-03-07 16:24:00,39.2,22.1,-100.00,SW,223,8.7,8.7,50,-99.99,,,0.00,LWC V2.10 B1813,2013-03-07 21:24:00,
2013-03-07 16:29:00,39.2,21.7,-100.00,WSW,248,6.3,7.6,49,-99.99,,,0.00,LWC V2.10 B1813,2013-03-07 21:29:00,
2013-03-07 16:34:00,39.2,22.1,-100.00,West,267,5.4,8.3,50,-99.99,,,0.00,LWC V2.10 B1813,2013-03-07 21:34:00,
2013-03-07 16:39:00,39.2,22.6,-100.00,West,265,6.3,11.0,51,-99.99,,,0.00,LWC V2.10 B1813,2013-03-07 21:39:00,
2013-03-07 16:44:00,39.0,22.4,-100.00,SW,215,4.0,8.7,51,-99.99,,,0.00,LWC V2.10 B1813,2013-03-07 21:44:00,
2013-03-07 16:50:00,38.8,22.7,-100.00,SW,226,3.1,10.1,52,-99.99,,,0.00,LWC V2.10 B1813,2013-03-07 21:50:00,
2013-03-07 16:55:00,38.8,22.7,-100.00,WSW,254,4.0,5.8,52,-99.99,,,0.00,LWC V2.10 B1813,2013-03-07 21:55:00,
2013-03-07 17:00:00,38.7,23.0,-100.00,WSW,241,6.3,8.7,53,-99.99,,,0.00,LWC V2.10 B1813,2013-03-07 22:00:00,
2013-03-07 17:05:00,38.7,23.5,-100.00,WSW,243,5.8,8.7,54,-99.99,,,0.00,LWC V2.10 B1813,2013-03-07 22:05:00,
2013-03-07 17:10:00,38.7,23.5,-100.00,SSW,197,5.8,8.7,54,-99.99,,,0.00,LWC V2.10 B1813,2013-03-07 22:10:00,
2013-03-07 17:15:00,38.5,23.3,-100.00,SSW,203,6.3,7.6,54,-99.99,,,0.00,LWC V2.10 B1813,2013-03-07 22:15:00,
2013-03-07 17:20:00,38.5,23.3,-100.00,SSW,213,3.1,8.7,54,-99.99,,,0.00,LWC V2.10 B1813,2013-03-07 22:20:00,
2013-03-07 17:25:00,38.3,23.1,-100.00,West,271,5.4,9.6,54,-99.99,,,0.00,LWC V2.10 B1813,2013-03-07 22:25:00,
2013-03-07 17:30:00,38.3,23.1,-100.00,WNW,282,6.3,8.1,54,-99.99,,,0.00,LWC V2.10 B1813,2013-03-07 22:30:00,
2013-03-07 17:35:00,38.1,23.0,-100.00,West,273,3.1,7.6,54,-99.99,,,0.00,LWC V2.10 B1813,2013-03-07 22:35:00,
2013-03-07 17:40:00,38.1,23.4,-100.00,West,260,3.6,8.1,55,-99.99,,,0.00,LWC V2.10 B1813,2013-03-07 22:40:00,
2013-03-07 17:45:00,37.9,23.2,-100.00,WSW,256,3.6,4.0,55,-99.99,,,0.00,LWC V2.10 B1813,2013-03-07 22:45:00,
2013-03-07 17:50:00,37.9,21.9,-100.00,SW,235,7.6,7.6,52,-99.99,,,0.00,LWC V2.10 B1813,2013-03-07 22:50:00,
2013-03-07 17:55:00,37.8,22.2,-100.00,SSW,210,4.9,4.9,53,-99.99,,,0.00,LWC V2.10 B1813,2013-03-07 22:55:00,
2013-03-07 18:00:00,37.6,21.6,-100.00,SSW,210,2.7,5.8,52,-99.99,,,0.00,LWC V2.10 B1813,2013-03-07 23:00:00,
2013-03-07 18:05:00,37.6,22.5,-100.00,WSW,242,3.1,5.8,54,-99.99,,,0.00,LWC V2.10 B1813,2013-03-07 23:05:00,
2013-03-07 18:10:00,37.4,21.9,-100.00,WSW,251,5.4,5.8,53,-99.99,,,0.00,LWC V2.10 B1813,2013-03-07 23:10:00,
2013-03-07 18:15:00,37.2,21.7,-100.00,South,190,4.0,8.1,53,-99.99,,,0.00,LWC V2.10 B1813,2013-03-07 23:15:00,
2013-03-07 18:20:00,37.0,22.0,-100.00,SW,233,4.9,5.8,54,-99.99,,,0.00,LWC V2.10 B1813,2013-03-07 23:20:00,
2013-03-07 18:25:00,36.9,21.8,-100.00,WSW,245,5.4,5.4,54,-99.99,,,0.00,LWC V2.10 B1813,2013-03-07 23:25:00,
2013-03-07 18:30:00,36.9,21.8,-100.00,SW,228,2.7,5.8,54,-99.99,,,0.00,LWC V2.10 B1813,2013-03-07 23:30:00,
2013-03-07 18:35:00,36.9,21.3,-100.00,SSW,203,3.6,8.7,53,-99.99,,,0.00,LWC V2.10 B1813,2013-03-07 23:35:00,
2013-03-07 18:40:00,36.7,20.7,-100.00,West,269,5.8,6.3,52,-99.99,,,0.00,LWC V2.10 B1813,2013-03-07 23:40:00,
2013-03-07 18:45:00,36.5,20.6,-100.00,SW,222,4.9,5.4,52,-99.99,,,0.00,LWC V2.10 B1813,2013-03-07 23:45:00,
2013-03-07 18:50:00,36.3,20.8,-100.00,WSW,242,4.9,6.3,53,-99.99,,,0.00,LWC V2.10 B1813,2013-03-07 23:50:00,
2013-03-07 18:55:00,36.3,20.8,-100.00,West,270,4.9,8.1,53,-99.99,,,0.00,LWC V2.10 B1813,2013-03-07 23:55:00,
2013-03-07 19:00:00,36.1,21.1,-100.00,West,265,8.3,8.7,54,-99.99,,,0.00,LWC V2.10 B1813,2013-03-08 00:00:00,
2013-03-07 19:05:00,36.1,21.1,-100.00,SW,233,5.8,8.3,54,-99.99,,,0.00,LWC V2.10 B1813,2013-03-08 00:05:00,
2013-03-07 19:10:00,36.0,21.4,-100.00,WSW,246,8.1,8.1,55,-99.99,,,0.00,LWC V2.10 B1813,2013-03-08 00:10:00,
2013-03-07 19:15:00,35.8,21.6,-100.00,West,262,6.3,8.7,56,-99.99,,,0.00,LWC V2.10 B1813,2013-03-08 00:15:00,
2013-03-07 19:20:00,35.8,22.1,-100.00,WSW,251,5.8,8.7,57,-99.99,,,0.00,LWC V2.10 B1813,2013-03-08 00:20:00,
2013-03-07 19:25:00,35.6,21.9,-100.00,WSW,254,6.7,8.7,57,-99.99,,,0.00,LWC V2.10 B1813,2013-03-08 00:25:00,
2013-03-07 19:30:00,35.6,21.9,-100.00,West,280,6.3,8.3,57,-99.99,,,0.00,LWC V2.10 B1813,2013-03-08 00:30:00,
2013-03-07 19:35:00,35.4,22.5,-100.00,West,266,6.3,8.3,59,-99.99,,,0.00,LWC V2.10 B1813,2013-03-08 00:35:00,
2013-03-07 19:40:00,35.4,22.5,-100.00,SSW,196,5.8,6.3,59,-99.99,,,0.00,LWC V2.10 B1813,2013-03-08 00:40:00,
2013-03-07 19:45:00,35.4,22.5,-100.00,WSW,253,6.3,6.3,59,-99.99,,,0.00,LWC V2.10 B1813,2013-03-08 00:45:00,
2013-03-07 19:50:00,35.4,22.5,-100.00,WSW,256,5.8,8.7,59,-99.99,,,0.00,LWC V2.10 B1813,2013-03-08 00:50:00,
2013-03-07 19:55:00,35.4,22.9,-100.00,WNW,287,4.0,5.4,60,-99.99,,,0.00,LWC V2.10 B1813,2013-03-08 00:55:00,
2013-03-07 20:00:00,35.4,22.9,-100.00,West,259,6.3,6.3,60,-99.99,,,0.00,LWC V2.10 B1813,2013-03-08 01:00:00,
2013-03-07 20:05:00,35.4,22.9,-100.00,WSW,251,6.3,8.3,60,-99.99,,,0.00,LWC V2.10 B1813,2013-03-08 01:05:00,
2013-03-07 20:10:00,35.4,22.9,-100.00,West,265,4.9,8.1,60,-99.99,,,0.00,LWC V2.10 B1813,2013-03-08 01:10:00,
2013-03-07 20:15:00,35.2,23.2,-100.00,SSW,210,4.9,8.7,61,-99.99,,,0.00,LWC V2.10 B1813,2013-03-08 01:15:00,
2013-03-07 20:20:00,35.1,23.0,-100.00,WSW,252,3.1,7.6,61,-99.99,,,0.00,LWC V2.10 B1813,2013-03-08 01:20:00,
2013-03-07 20:25:00,35.1,23.4,-100.00,WSW,241,4.0,6.3,62,-99.99,,,0.00,LWC V2.10 B1813,2013-03-08 01:25:00,
2013-03-07 20:30:00,35.2,23.5,-100.00,West,262,5.4,6.3,62,-99.99,,,0.00,LWC V2.10 B1813,2013-03-08 01:30:00,
2013-03-07 20:35:00,35.1,23.0,-100.00,WSW,249,8.3,8.3,61,-99.99,,,0.00,LWC V2.10 B1813,2013-03-08 01:35:00,
2013-03-07 20:40:00,35.1,23.0,-100.00,West,264,7.6,7.6,61,-99.99,,,0.00,LWC V2.10 B1813,2013-03-08 01:40:00,
2013-03-07 20:45:00,35.1,23.0,-100.00,West,272,2.7,8.3,61,-99.99,,,0.00,LWC V2.10 B1813,2013-03-08 01:45:00,
2013-03-07 20:50:00,35.1,23.4,-100.00,West,265,3.1,7.6,62,-99.99,,,0.00,LWC V2.10 B1813,2013-03-08 01:50:00,
2013-03-07 20:55:00,35.1,23.4,-100.00,West,270,5.8,6.3,62,-99.99,,,0.00,LWC V2.10 B1813,2013-03-08 01:55:00,
2013-03-07 21:00:00,34.9,23.6,-100.00,SW,235,7.6,7.6,63,-99.99,,,0.00,LWC V2.10 B1813,2013-03-08 02:00:00,
2013-03-07 21:05:00,34.9,23.2,-100.00,West,267,8.1,8.1,62,-99.99,,,0.00,LWC V2.10 B1813,2013-03-08 02:05:00,
2013-03-07 21:10:00,34.9,23.2,-100.00,West,267,8.7,8.7,62,-99.99,,,0.00,LWC V2.10 B1813,2013-03-08 02:10:00,
2013-03-07 21:15:00,34.9,23.2,-100.00,WNW,297,5.8,8.3,62,-99.99,,,0.00,LWC V2.10 B1813,2013-03-08 02:15:00,
2013-03-07 21:20:00,34.9,23.2,-100.00,WSW,251,8.7,10.5,62,-99.99,,,0.00,LWC V2.10 B1813,2013-03-08 02:20:00,
2013-03-07 21:25:00,34.9,23.6,-100.00,WNW,285,8.7,11.0,63,-99.99,,,0.00,LWC V2.10 B1813,2013-03-08 02:25:00,
2013-03-07 21:30:00,34.9,23.6,-100.00,West,274,10.1,10.1,63,-99.99,,,0.00,LWC V2.10 B1813,2013-03-08 02:30:00,
2013-03-07 21:35:00,34.9,23.6,-100.00,WSW,255,4.0,7.6,63,-99.99,,,0.00,LWC V2.10 B1813,2013-03-08 02:35:00,
2013-03-07 21:40:00,34.9,23.2,-100.00,WNW,296,5.8,8.7,62,-99.99,,,0.00,LWC V2.10 B1813,2013-03-08 02:40:00,
2013-03-07 21:45:00,34.9,22.8,-100.00,West,277,4.9,10.5,61,-99.99,,,0.00,LWC V2.10 B1813,2013-03-08 02:45:00,
2013-03-07 21:50:00,34.9,22.8,-100.00,WNW,300,4.9,6.7,61,-99.99,,,0.00,LWC V2.10 B1813,2013-03-08 02:50:00,
2013-03-07 21:55:00,34.9,23.2,-100.00,WNW,289,4.9,6.3,62,-99.99,,,0.00,LWC V2.10 B1813,2013-03-08 02:55:00,
2013-03-07 22:00:00,34.7,23.0,-100.00,West,263,6.3,8.1,62,-99.99,,,0.00,LWC V2.10 B1813,2013-03-08 03:00:00,
2013-03-07 22:05:00,34.7,23.0,-100.00,West,260,5.4,6.7,62,-99.99,,,0.00,LWC V2.10 B1813,2013-03-08 03:05:00,
2013-03-07 22:10:00,34.7,23.0,-100.00,West,270,5.4,8.1,62,-99.99,,,0.00,LWC V2.10 B1813,2013-03-08 03:10:00,
2013-03-07 22:15:00,34.7,22.6,-100.00,WNW,296,6.3,8.1,61,-99.99,,,0.00,LWC V2.10 B1813,2013-03-08 03:15:00,
2013-03-07 22:20:00,34.7,23.0,-100.00,West,278,3.1,5.8,62,-99.99,,,0.00,LWC V2.10 B1813,2013-03-08 03:20:00,
2013-03-07 22:25:00,34.7,23.0,-100.00,WNW,285,4.9,8.1,62,-99.99,,,0.00,LWC V2.10 B1813,2013-03-08 03:25:00,
2013-03-07 22:30:00,34.7,23.0,-100.00,West,270,3.1,5.8,62,-99.99,,,0.00,LWC V2.10 B1813,2013-03-08 03:30:00,
2013-03-07 22:35:00,34.7,23.0,-100.00,WSW,237,3.6,5.8,62,-99.99,,,0.00,LWC V2.10 B1813,2013-03-08 03:35:00,
2013-03-07 22:40:00,34.5,22.9,-100.00,West,264,4.0,6.3,62,-99.99,,,0.00,LWC V2.10 B1813,2013-03-08 03:40:00,
2013-03-07 22:45:00,34.5,23.2,-100.00,West,281,5.4,6.3,63,-99.99,,,0.00,LWC V2.10 B1813,2013-03-08 03:45:00,
2013-03-07 22:50:00,34.5,22.9,-100.00,West,263,4.9,4.9,62,-99.99,,,0.00,LWC V2.10 B1813,2013-03-08 03:50:00,
2013-03-07 22:55:00,34.7,23.0,-100.00,West,259,4.0,5.4,62,-99.99,,,0.00,LWC V2.10 B1813,2013-03-08 03:55:00,
2013-03-07 23:00:00,34.7,23.0,-100.00,WNW,288,4.0,4.9,62,-99.99,,,0.00,LWC V2.10 B1813,2013-03-08 04:00:00,
2013-03-07 23:05:00,34.7,23.0,-100.00,WNW,302,3.1,5.4,62,-99.99,,,0.00,LWC V2.10 B1813,2013-03-08 04:05:00,
2013-03-07 23:10:00,34.5,22.9,-100.00,NNW,331,0.0,0.0,62,-99.99,,,0.00,LWC V2.10 B1813,2013-03-08 04:10:00,
2013-03-07 23:15:00,34.5,23.2,-100.00,WNW,300,4.9,4.9,63,-99.99,,,0.00,LWC V2.10 B1813,2013-03-08 04:15:00,
2013-03-07 23:20:00,34.5,23.2,-100.00,NW,309,0.0,4.0,63,-99.99,,,0.00,LWC V2.10 B1813,2013-03-08 04:20:00,
2013-03-07 23:25:00,34.5,23.6,-100.00,WNW,303,0.0,3.1,64,-99.99,,,0.00,LWC V2.10 B1813,2013-03-08 04:25:00,
2013-03-07 23:30:00,34.5,24.0,-100.00,NW,307,3.1,3.1,65,-99.99,,,0.00,LWC V2.10 B1813,2013-03-08 04:30:00,
2013-03-07 23:36:00,34.5,24.0,-100.00,WNW,292,3.1,7.6,65,-99.99,,,0.00,LWC V2.10 B1813,2013-03-08 04:36:00,
2013-03-07 23:41:00,34.5,24.0,-100.00,NW,309,3.6,4.0,65,-99.99,,,0.00,LWC V2.10 B1813,2013-03-08 04:41:00,
2013-03-07 23:46:00,34.5,24.0,-100.00,NW,312,0.0,0.0,65,-99.99,,,0.00,LWC V2.10 B1813,2013-03-08 04:46:00,
2013-03-07 23:51:00,34.3,24.2,-100.00,WNW,302,0.0,5.4,66,-99.99,,,0.00,LWC V2.10 B1813,2013-03-08 04:51:00,
2013-03-07 23:56:00,34.3,24.2,-100.00,NNW,333,3.1,3.1,66,-99.99,,,0.00,LWC V2.10 B1813,2013-03-08 04:56:00,